[[{"header":{"parameterUnit":"m.s-1","parameterCategory":1,"la1":30.2991,"la2":30.254,"lo1":-89.0895,"lo2":-89.0444,"dy":0.0017,"dx":0.0017,"nx":28,"ny":28,"refTime":"2024-10-13T03:00:00:Z","depth":0,"parameterNumber":2,"parameterNumberName":"U-component_of_WINDS"},"data":[0,0,0,0,0,0,0,0,0,0,0,0,0,0,0,0,0,0,0,0,0,0,0,0,0,0,0,0,0,0,0,0,0,0,0,0,0,0,0,0,0,0,0,0,0,0,0,0,0,0,0,0,0,0,0,0,0,0,3.9939,3.994,0,4.0037,4.0038,4.0039,3.9962,3.9959,3.9956,3.9952,4.0059,4.0065,4.007,0,0,0,0,0,0,0,0,0,0,0,0,0,3.9693,3.9698,3.9939,3.9941,3.9942,4.0037,4.0038,4.004,3.9963,3.9959,3.9955,3.9951,4.0057,4.0064,4.0071,0,0,0,0,0,0,0,0,0,0,0,0,0,3.9797,3.97,3.9939,3.9915,3.9913,4.0037,4.0038,4.004,3.9964,3.9959,3.9954,3.9949,4.0055,4.0063,4.0072,4.0226,0,0,4.0099,4.0103,0,0,0,0,0,0,0,0,3.9791,3.9806,3.9917,3.9917,3.9915,3.9982,3.999,4.0103,3.9965,3.9945,3.9952,3.9947,4.0038,4.0048,4.0077,4.0231,4.0236,4.01,4.0105,4.0109,4.0112,0,0,0,0,0,0,0,3.9784,3.9801,3.9978,3.9919,3.9918,3.9901,3.991,4.0011,4.0018,3.9946,3.9941,3.9953,4.0036,4.0069,4.0079,4.0238,4.01,4.0108,4.0113,4.0116,4.0527,4.0533,0,0,0,0,0,0,3.9778,3.9796,3.9975,3.9981,3.9839,3.991,3.992,3.9966,4.0017,4.002,3.9957,3.9949,4.0056,4.0069,4.0083,4.0269,4.0109,4.0117,4.0122,4.0522,4.0529,4.0535,0,0,0,0,0,0,3.9773,3.9795,3.9971,3.9887,3.9908,3.9919,3.9972,3.9971,4.0003,4.0025,4.0027,3.9989,4.0053,4.007,4.0192,4.0272,4.0121,4.0129,4.0515,4.0524,4.0532,4.0643,0,0,0,0,0,0,3.9766,3.9793,3.985,3.9889,3.9913,4.0077,3.9976,3.9976,4.0018,4.0008,4.0055,4.0058,4.005,4.0179,4.0201,4.0281,4.0136,4.0508,4.0519,4.0529,4.0632,4.0654,4.0672,0,0,0,0,0,3.9758,3.9878,3.9854,3.9876,3.9984,4.0081,4.0095,4.0082,4.0024,4.0083,4.0098,4.0057,4.0259,4.0192,4.0216,4.03,4.0503,4.0516,4.0528,4.0623,4.0649,4.0672,0,0,0,0,0,0,3.985,3.9883,3.9856,3.9992,4.0034,4.0068,4.0141,4.011,4.0171,4.016,4.0142,4.0154,4.0282,4.0303,4.0228,4.0454,4.0372,4.039,4.0436,4.0462,4.0482,4.0475,4.0144,0,0,0,0,0,3.9886,3.9961,3.9985,4.0103,4.0126,4.013,4.0172,4.0158,4.0202,4.022,4.0244,4.029,4.0365,4.0414,4.0483,4.0634,4.0645,4.0704,4.0725,4.0741,4.0758,4.0842,4.087,4.0576,4.0576,4.0576,0,0,3.9962,3.9989,4.0037,4.0123,4.0154,4.0234,4.0146,4.0233,4.0294,4.0234,4.0351,4.037,4.0421,4.0558,4.062,4.058,4.0841,4.0757,4.077,4.0778,4.0858,4.0886,4.0911,4.0584,4.0583,4.0581,0,0,4.0141,4.0167,4.027,4.0303,4.0351,4.0353,4.0378,4.0418,4.0428,4.0544,4.0502,4.0574,4.0702,4.074,4.0777,4.0973,4.0939,4.0997,4.1103,4.1186,4.1209,4.123,4.1303,4.1329,4.1012,4.1013,4.1013,0,4.0229,4.0346,4.0327,4.0418,4.0459,4.0407,4.0513,4.0547,4.0616,4.0647,4.0599,4.076,4.0791,4.0938,4.0986,4.1017,4.1047,4.0992,4.1207,4.1227,4.1246,4.1316,4.1343,4.102,4.1019,4.1018,4.1017,0,4.0454,4.0536,4.0613,4.068,4.0729,4.0827,4.0826,4.0878,4.0861,4.0869,4.099,4.1025,4.1102,4.1135,4.1119,4.1282,4.1256,4.1209,4.1126,4.1282,4.1347,4.1373,4.1029,4.1027,4.1025,4.1023,0,0,4.0694,4.075,4.0779,4.081,4.086,4.0925,4.1022,4.1095,4.1142,4.1192,4.1276,4.1386,4.1343,4.1384,4.1372,4.1445,4.1602,4.1389,4.139,4.143,4.1787,4.1824,4.1855,4.1579,4.1584,4.1588,4.1784,0,4.0877,4.1044,4.1031,4.119,4.1268,4.1221,4.1306,4.1348,4.1359,4.1428,4.1441,4.152,4.1456,4.1481,4.1551,4.1568,4.1674,4.1554,4.1659,4.1663,4.165,4.1888,4.1927,4.2111,4.1809,4.1813,4.1816,0,4.1113,4.117,4.1337,4.1378,4.141,4.1487,4.1555,4.1621,4.1668,4.1672,4.1719,4.1696,4.1797,4.1711,4.1852,4.1771,4.1813,4.1829,4.1836,4.1847,4.1751,4.1908,4.2168,4.2197,4.1856,4.1853,4.185,0,4.1275,4.1394,4.151,4.1537,4.1588,4.1643,4.1667,4.1709,4.1756,4.1816,4.1846,4.1918,4.1958,4.2016,4.2014,4.1951,4.2158,4.2071,4.2167,4.2167,4.2214,4.2211,4.2487,4.2238,4.2237,4.2237,4.2236,0,4.1482,4.1586,4.1583,4.1655,4.1772,4.1757,4.1874,4.1892,4.1931,4.2007,4.1971,4.2044,4.2036,4.2111,4.211,4.2229,4.2247,4.2254,4.2253,4.2259,4.2258,4.2288,4.2276,4.2244,4.2243,4.2241,4.224,0,4.1683,4.1684,4.1808,4.1845,4.1858,4.1943,4.1976,4.2045,4.2053,4.2151,4.2173,4.2187,4.2273,4.2276,4.2375,4.2375,4.2521,4.2504,4.2504,4.2502,4.2598,4.259,4.2904,4.2945,4.2668,4.267,4.2672,0,4.1816,4.1895,4.1941,4.1989,4.2016,4.2094,4.2141,4.213,4.2181,4.2243,4.2306,4.2388,4.2453,4.2593,4.2614,4.269,4.2677,4.2782,4.2688,4.2692,4.2682,4.2678,4.2687,4.2801,4.2804,4.2806,4.2808,0,4.2053,4.205,4.2118,4.2188,4.2244,4.2299,4.2349,4.2391,4.2387,4.2446,4.2533,4.2584,4.2685,4.2769,4.2843,4.287,4.2841,4.2837,4.2864,4.2871,4.2869,4.2874,4.2556,4.2831,4.2828,4.2827,4.2825,4.2825,4.2226,4.2295,4.2339,4.2417,4.2454,4.2502,4.257,4.2587,4.2658,4.2739,4.2728,4.2826,4.2875,4.2972,4.3005,4.3083,4.3047,4.3085,4.3095,4.3105,4.3117,4.2855,4.3097,4.3096,4.3095,4.3095,4.3094,0,4.2463,4.2489,4.2561,4.2633,4.2695,4.2659,4.2713,4.2769,4.2854,4.2901,4.2966,4.3068,4.3149,4.3176,4.3256,4.3313,4.3302,4.3335,4.3332,4.3339,4.3143,4.3113,4.3343,4.3343,4.3343,4.3343,4.3343,4.3343,4.2594,4.2711,4.2714,4.2849,4.2875,4.2969,4.3004,4.305,4.3087,4.3202,4.3269,4.3285,4.3326,4.3408,4.3482,4.3488,4.352,4.356,4.3561,4.3377,4.3353,4.3329,4.3301,4.3566,4.3567,4.3751,4.3752,4.3754]},{"header":{"parameterUnit":"m.s-1","parameterCategory":1,"la1":30.2991,"la2":30.254,"lo1":-89.0895,"lo2":-89.0444,"dy":0.0017,"dx":0.0017,"nx":28,"ny":28,"refTime":"2024-10-13T03:00:00:Z","depth":0,"parameterNumber":3,"parameterNumberName":"V-component_of_WINDS"},"data":[0,0,0,0,0,0,0,0,0,0,0,0,0,0,0,0,0,0,0,0,0,0,0,0,0,0,0,0,0,0,0,0,0,0,0,0,0,0,0,0,0,0,0,0,0,0,0,0,0,0,0,0,0,0,0,0,0,0,1.1139,1.114,0,1.1232,1.1233,1.1235,1.1245,1.1244,1.1243,1.1243,1.1338,1.1341,1.1345,0,0,0,0,0,0,0,0,0,0,0,0,0,1.0966,1.0969,1.1139,1.114,1.1141,1.1232,1.1234,1.1235,1.1246,1.1244,1.1243,1.1242,1.1337,1.1341,1.1345,0,0,0,0,0,0,0,0,0,0,0,0,0,1.1048,1.097,1.1138,1.1157,1.116,1.1232,1.1234,1.1235,1.1246,1.1244,1.1243,1.1242,1.1335,1.134,1.1345,1.1405,0,0,1.1361,1.1363,0,0,0,0,0,0,0,0,1.1043,1.1055,1.1153,1.1156,1.1159,1.1226,1.1207,1.1292,1.1246,1.1213,1.1243,1.1241,1.1302,1.1309,1.133,1.1409,1.1413,1.1361,1.1365,1.1367,1.1368,0,0,0,0,0,0,0,1.1038,1.1051,1.1176,1.1155,1.1158,1.116,1.117,1.1224,1.1264,1.1216,1.1217,1.1228,1.1303,1.1325,1.1332,1.1415,1.1361,1.1366,1.1369,1.1371,1.1543,1.1544,0,0,0,0,0,0,1.1029,1.1046,1.1173,1.1179,1.1097,1.1164,1.1176,1.1206,1.1264,1.1271,1.1229,1.1228,1.1317,1.1326,1.1336,1.1406,1.1367,1.1372,1.1374,1.1541,1.1543,1.1545,0,0,0,0,0,0,1.1025,1.104,1.1169,1.1112,1.1129,1.1169,1.1202,1.1208,1.1231,1.1273,1.128,1.1244,1.1316,1.1329,1.1387,1.141,1.1374,1.1378,1.1539,1.1542,1.1544,1.1549,0,0,0,0,0,0,1.102,1.1039,1.1063,1.1113,1.1132,1.1219,1.1204,1.1211,1.1239,1.1239,1.129,1.1297,1.1316,1.1379,1.1392,1.1416,1.1382,1.1537,1.154,1.1543,1.1547,1.1551,1.1555,0,0,0,0,0,1.1014,1.1061,1.1064,1.1079,1.1163,1.1221,1.1232,1.1253,1.1241,1.1265,1.1292,1.1295,1.1405,1.1385,1.1399,1.1426,1.1536,1.154,1.1543,1.1545,1.1551,1.1555,0,0,0,0,0,0,1.1014,1.1068,1.1072,1.1137,1.1174,1.1223,1.1253,1.1259,1.13,1.1298,1.1322,1.1334,1.139,1.1414,1.139,1.1484,1.1469,1.1476,1.1466,1.1471,1.1475,1.1468,1.1387,0,0,0,0,0,1.1021,1.1064,1.111,1.1163,1.1181,1.1214,1.124,1.1253,1.1292,1.1308,1.1339,1.1376,1.1419,1.1447,1.1489,1.155,1.156,1.1575,1.1579,1.1582,1.1587,1.1618,1.1624,1.1556,1.1556,1.1556,0,0,1.1037,1.1072,1.1098,1.1163,1.1194,1.1236,1.1227,1.1273,1.1304,1.1315,1.1371,1.1395,1.1438,1.1497,1.1524,1.1518,1.1608,1.1586,1.1589,1.1592,1.1622,1.1628,1.1634,1.1558,1.1557,1.1557,0,0,1.1088,1.112,1.1166,1.1196,1.1241,1.1262,1.1273,1.132,1.1336,1.1392,1.1399,1.1436,1.151,1.1539,1.1564,1.1621,1.1625,1.1634,1.1654,1.1684,1.1689,1.1694,1.1712,1.1718,1.1639,1.1639,1.1639,0,1.1102,1.1167,1.1189,1.1234,1.1261,1.1271,1.1317,1.1344,1.1401,1.1419,1.1411,1.1501,1.1531,1.1595,1.1609,1.1629,1.164,1.1628,1.1687,1.1692,1.1697,1.1714,1.1721,1.164,1.164,1.1639,1.1639,0,1.1181,1.1226,1.1257,1.131,1.1341,1.1386,1.1413,1.1441,1.145,1.1471,1.1526,1.1562,1.161,1.1626,1.1637,1.1691,1.1685,1.1682,1.1668,1.1704,1.172,1.1727,1.1641,1.164,1.164,1.164,0,0,1.1236,1.1298,1.1309,1.1332,1.1381,1.1415,1.1459,1.1505,1.1527,1.1565,1.1601,1.1661,1.1657,1.1685,1.1698,1.1724,1.1763,1.1717,1.1719,1.1723,1.1821,1.1822,1.183,1.1766,1.1767,1.1768,1.1817,0,1.129,1.137,1.1389,1.1456,1.1496,1.1504,1.1542,1.1575,1.1595,1.163,1.1652,1.1693,1.1687,1.1703,1.1729,1.1753,1.1783,1.175,1.1798,1.1799,1.1785,1.1839,1.1841,1.1886,1.1824,1.1825,1.1826,0,1.1365,1.1403,1.1474,1.1514,1.1531,1.1565,1.1607,1.1642,1.1678,1.169,1.1719,1.1729,1.1772,1.1756,1.1815,1.1792,1.1812,1.1826,1.1828,1.1833,1.1814,1.1843,1.1901,1.1907,1.1837,1.1836,1.1835,0,1.1395,1.1464,1.1514,1.1533,1.1583,1.1605,1.1627,1.1662,1.1687,1.1723,1.1739,1.178,1.1801,1.1832,1.1851,1.1838,1.1907,1.1894,1.1917,1.1916,1.1931,1.193,1.1991,1.1947,1.1947,1.1946,1.1946,0,1.1453,1.1495,1.1528,1.1558,1.1605,1.1625,1.167,1.1692,1.1722,1.1756,1.1766,1.1797,1.1821,1.1855,1.1871,1.1915,1.1926,1.1935,1.1939,1.1934,1.1932,1.1947,1.1944,1.1948,1.1948,1.1947,1.1947,0,1.1494,1.1518,1.1573,1.1614,1.1625,1.1657,1.1691,1.172,1.1739,1.1781,1.1792,1.1822,1.1862,1.1884,1.1935,1.1945,1.1994,1.1997,1.1981,1.1983,1.2004,1.2001,1.2076,1.2086,1.2036,1.2037,1.2037,0,1.1529,1.1562,1.1605,1.1628,1.1649,1.1687,1.1712,1.1732,1.1758,1.1799,1.1822,1.1863,1.1896,1.1959,1.1984,1.2022,1.2024,1.2048,1.203,1.2023,1.2022,1.2019,1.2021,1.2051,1.2051,1.2051,1.2052,0,1.1588,1.1597,1.1633,1.1672,1.1701,1.1733,1.1764,1.1782,1.1807,1.1835,1.1875,1.1901,1.1951,1.199,1.2029,1.2049,1.2054,1.2057,1.2064,1.2059,1.2048,1.2052,1.1988,1.2055,1.2055,1.2055,1.2054,1.2054,1.1626,1.1653,1.1687,1.1726,1.1751,1.178,1.1808,1.1829,1.1864,1.1906,1.1915,1.1957,1.1989,1.2042,1.2063,1.2094,1.209,1.2101,1.2104,1.2106,1.2105,1.2043,1.2102,1.2102,1.2102,1.2102,1.2102,0,1.1683,1.1704,1.1739,1.1782,1.1812,1.1813,1.1847,1.1871,1.1908,1.1938,1.1969,1.2014,1.2051,1.2078,1.2115,1.2134,1.2137,1.2143,1.2141,1.2145,1.2108,1.2097,1.214,1.214,1.214,1.214,1.214,1.214,1.1716,1.1762,1.1774,1.1832,1.1853,1.1894,1.1913,1.1938,1.1961,1.201,1.2041,1.2058,1.2086,1.2124,1.2157,1.2164,1.2176,1.2181,1.2188,1.2153,1.2149,1.2145,1.2134,1.2184,1.2184,1.2223,1.2223,1.2223]}]]